McCook, NE

6:47 PM CST on December 05, 2019 (GMT -0600)
McCook Municipal

Weather History for KMCK - September, 2019

Change the Weather History Date:

Thursday, September 12, 2019

  Actual Average Record
Temperature  
Mean Temperature 67 °F 66 °F  
Max Temperature 80 °F 81 °F 102 °F (1911)
Min Temperature 54 °F 51 °F 34 °F (2014)
Cooling Degree Days 2    
Growing Degree Days 17 (Base 50)    
Moisture  
Dew Point 51 °F    
Average Humidity 64    
Maximum Humidity 90    
Minimum Humidity 30    
Precipitation  
Precipitation 0.19 in 0.04 in 1.61 in (2002)
Month to date precipitation 0.51 0.60  
Year to date precipitation 17.84 18.31  
Sea Level Pressure  
Sea Level Pressure 30.02 in    
Wind  
Wind Speed 11 mph ()    
Max Wind Speed 21 mph    
Max Gust Speed 37 mph    
Visibility 9.4 miles    
Events Rain , Thunderstorm    
T = Trace of Precipitation, MM = Missing Value Source: Averaged Metar Reports

Daily Weather History Graph

Daily Weather History Graph

Search for Another Location

Airport or City:

Astronomy

Sep. 12, 2019 Rise Set
Actual Time 7:20 AM CDT 7:56 PM CDT
Civil Twilight 6:52 AM CDT 8:23 PM CDT
Nautical Twilight 6:20 AM CDT 8:55 PM CDT
Astronomical Twilight 5:47 AM CDT 9:29 PM CDT
Moon 7:41 PM CDT (9/12) 5:41 AM CDT (9/12)
Length of Visible Light 13h 30m
Length of Day
12h 36m
Waxing Gibbous, 98% of the Moon is Illuminated
Sep 12
Waxing Gibbous
Sep 13
Full
Sep 21
Last Quarter
Sep 28
New
Oct 5
First Quarter

Hourly Weather History & Observations

Time (CDT) Temp. Dew Point Humidity Pressure Visibility Wind Dir Wind Speed Gust Speed Precip Events Conditions
12:37 AM 64.0 °F 61.0 °F 90% 29.95 in 9.0 mi WNW 9.2 mph - 0.13 in Rain , Thunderstorm Light Rain
12:53 AM 64.0 °F 61.0 °F 90% 29.87 in 7.0 mi NW 12.7 mph - 0.16 in Rain , Thunderstorm Light Rain
1:35 AM 62.1 °F 59.0 °F 90% 29.96 in 10.0 mi NW 13.8 mph - 0.02 in   Overcast
1:53 AM 62.1 °F 57.9 °F 86% 29.88 in 10.0 mi North 9.2 mph - 0.03 in   Overcast
2:53 AM 61.0 °F 57.9 °F 90% 29.89 in 10.0 mi West 6.9 mph - N/A   Mostly Cloudy
3:53 AM 60.1 °F 57.0 °F 90% 29.91 in 10.0 mi WNW 4.6 mph - N/A   Overcast
4:53 AM 59.0 °F 55.9 °F 90% 29.94 in 10.0 mi WNW 11.5 mph - N/A   Partly Cloudy
5:53 AM 57.9 °F 55.0 °F 90% 29.94 in 10.0 mi West 9.2 mph - N/A   Clear
6:53 AM 57.9 °F 55.0 °F 90% 29.98 in 10.0 mi WNW 10.4 mph - N/A   Clear
7:53 AM 59.0 °F 52.0 °F 78% 30.00 in 10.0 mi WNW 10.4 mph - N/A   Mostly Cloudy
8:53 AM 61.0 °F 52.0 °F 72% 30.03 in 10.0 mi NW 13.8 mph - N/A   Scattered Clouds
9:53 AM 61.0 °F 51.1 °F 70% 30.05 in 10.0 mi NW 13.8 mph - N/A   Mostly Cloudy
10:53 AM 66.9 °F 48.0 °F 51% 30.05 in 10.0 mi NW 20.7 mph 27.6 mph N/A   Clear
11:53 AM 72.0 °F 46.9 °F 41% 30.06 in 10.0 mi NW 17.3 mph 28.8 mph N/A   Clear
12:53 PM 73.9 °F 46.9 °F 38% 30.05 in 10.0 mi WNW 19.6 mph 31.1 mph N/A   Clear
1:53 PM 75.9 °F 46.0 °F 35% 30.04 in 10.0 mi WNW 17.3 mph 29.9 mph N/A   Clear
2:53 PM 78.1 °F 46.9 °F 33% 30.04 in 10.0 mi WNW 17.3 mph 24.2 mph N/A   Clear
3:53 PM 80.1 °F 46.0 °F 30% 30.04 in 10.0 mi WNW 18.4 mph 36.8 mph N/A   Partly Cloudy
4:53 PM 79.0 °F 45.0 °F 30% 30.04 in 10.0 mi NW 18.4 mph 29.9 mph N/A   Partly Cloudy
5:53 PM 78.1 °F 46.0 °F 32% 30.04 in 10.0 mi NW 17.3 mph 26.5 mph N/A   Clear
6:48 PM 75.2 °F 46.4 °F 36% 30.10 in 4.0 mi NNW 18.4 mph - N/A   Haze
6:53 PM 75.9 °F 46.9 °F 36% 30.06 in 3.0 mi NW 17.3 mph - N/A   Haze
7:53 PM 68.0 °F 48.9 °F 50% 30.08 in 10.0 mi NW 9.2 mph - N/A   Clear
8:53 PM 61.0 °F 50.0 °F 67% 30.11 in 10.0 mi NW 8.1 mph - N/A   Clear
9:53 PM 60.1 °F 48.9 °F 67% 30.15 in 10.0 mi NNW 5.8 mph - N/A   Clear
10:53 PM 55.9 °F 48.9 °F 77% 30.17 in 10.0 mi NNW 5.8 mph - N/A   Clear
11:53 PM 57.0 °F 48.0 °F 72% 30.19 in 10.0 mi Calm Calm - N/A   Clear